CAPE
4344 4518 4435 4570 4604 4757 4736 4843 4720 4296 4055 3484 3307 3440 3393 3036 2726 2287 1881 1394 966 749 645 574 789 889 755 603 411 475 572 595 702 685 744 866 809 536 509 524 398 314 292 253 159 135 241 342 332 343 476 589 610 588 586 976 1255 1365 1386 1134 700 1018 1201 1052 397 104 116 133 39 16 1 28 23 59 120 169 157 148 94 197 285 250 202 183 135
4397 4472 4487 4517 4542 4780 4664 4766 4568 4012 3563 3393 3218 3258 3224 2904 2640 2142 1882 1413 836 724 532 715 880 886 644 582 600 502 629 765 672 641 671 689 521 455 528 501 440 340 332 312 298 280 383 540 540 302 332 580 705 686 482 491 777 1050 1097 1138 1178 1207 946 916 890 603 129 154 140 89 42 9 2 20 8 15 120 196 178 196 172 159 173 104 71
4282 4616 4638 4673 4607 4660 4695 4508 4112 3661 3290 3020 2856 3142 3090 2866 2332 1996 1726 1302 1032 592 696 824 1170 897 617 778 862 421 611 679 551 421 431 507 427 370 392 366 421 337 306 350 382 390 459 552 436 345 296 390 643 650 501 444 544 614 641 630 515 530 562 730 730 110 66 59 65 82 160 119 53 58 76 31 159 264 254 186 135 110 52 96 222
4087 4583 4692 4552 4616 4868 4589 4184 3691 3265 2918 2869 2768 3037 2825 2740 2309 1964 1427 992 923 741 911 1045 1186 1124 668 411 325 288 566 652 591 520 539 512 460 517 526 489 487 424 437 452 398 369 362 450 371 222 204 314 476 580 534 290 357 514 814 883 1034 1259 1190 941 720 392 494 113 110 159 164 256 343 230 108 56 51 169 265 202 124 62 59 120 184
3882 4491 4592 4470 4508 4678 4318 3865 3410 3096 2680 2518 2959 2936 2704 2625 2353 1946 1428 928 900 1012 1151 1139 1155 818 344 409 312 521 691 671 737 506 549 601 546 579 586 559 630 729 854 692 548 541 408 300 252 216 304 367 542 453 230 260 257 418 636 813 710 651 574 559 595 601 568 526 480 500 468 314 261 279 180 59 35 101 103 88 70 46 35 52 53
3785 4290 4515 4316 4450 4376 4154 3705 3240 3076 2922 2830 2892 2848 2671 2542 2141 1730 1248 872 894 898 1087 670 633 551 370 414 348 518 577 690 756 734 453 468 540 568 542 795 840 860 823 666 663 604 632 642 572 513 394 339 392 318 358 439 603 620 752 931 1065 847 666 530 550 639 742 722 699 219 250 378 200 147 194 116 49 30 46 97 100 47 31 23 18
3970 4421 4657 4314 4186 4180 4136 3498 3170 3032 2740 2866 2961 2765 2508 2074 1818 1526 858 667 687 328 320 465 519 397 391 523 670 704 761 764 798 796 730 676 778 972 1032 1013 1023 1052 809 577 469 479 446 572 583 620 571 468 416 496 580 651 573 527 710 766 864 1010 1006 776 682 659 593 637 636 715 850 907 514 88 122 106 246 296 243 76 48 115 143 113 114
4352 4694 4770 4326 4146 4208 3922 3433 3210 2941 2746 2981 2915 2726 2442 2028 1902 1272 456 549 263 231 274 174 434 595 667 558 539 548 789 854 1411 1247 908 940 1076 1049 1078 1070 989 844 684 665 533 384 251 272 229 169 320 531 674 976 1091 1159 1099 966 827 719 706 580 608 890 749 638 634 501 432 426 555 823 717 231 214 316 402 447 316 73 43 152 223 273 332
4639 4793 4790 4429 4232 4267 4016 3478 3239 2876 2607 2794 2911 2642 2204 2059 1632 1180 848 538 423 283 231 520 678 522 614 548 394 682 876 811 800 1003 936 964 817 739 866 696 958 662 612 631 633 582 500 372 206 271 278 707 1106 1224 1127 881 919 548 641 661 632 503 475 602 814 624 681 586 566 678 595 795 660 308 330 455 577 535 451 452 346 365 397 205 274
4858 4900 4667 4385 4166 4071 3466 3464 3016 2662 2518 2584 2658 2466 2153 1914 1745 1658 1396 823 272 259 148 462 461 467 588 595 616 942 776 793 758 403 399 558 658 742 424 868 860 644 612 734 759 643 594 619 370 600 753 1169 1445 1080 752 560 305 578 771 680 488 416 383 343 495 555 400 574 547 594 546 583 688 519 419 285 545 546 526 612 585 516 572 436 338
5004 4774 4372 4015 3918 3882 3739 3594 3058 2614 2539 2478 2661 2436 2052 1930 1686 1599 960 815 747 580 536 437 183 200 70 302 849 881 807 687 277 63 9 2 308 524 733 876 894 828 772 872 923 771 625 628 1116 1349 1501 1202 1146 428 377 249 10 0 0 5 75 427 270 308 398 396 503 543 611 516 409 428 512 1008 376 441 699 685 760 862 815 771 844 509 298
4738 4719 4258 4035 3605 3722 3453 3300 2878 2521 2491 2442 2435 2388 2058 1866 1738 1667 1106 923 984 816 486 488 254 136 74 315 796 820 796 506 198 42 0 0 23 539 672 696 796 848 1007 986 1033 1191 1268 1263 1208 1203 1377 1582 1750 1828 1272 712 395 173 91 67 48 55 58 248 368 356 479 579 633 568 627 431 475 458 391 431 634 705 726 795 896 874 627 299 281
4745 4762 4467 4136 3967 3506 3082 2948 2798 2722 2596 2182 2421 2010 2138 2117 1922 1795 1371 1079 1040 950 700 450 503 556 756 908 830 708 769 417 189 19 0 0 0 142 503 530 658 877 1284 1641 1698 1746 1844 1873 1732 1399 1497 1168 1081 1295 1349 1312 804 295 200 160 166 124 10 9 0 383 443 691 543 483 675 889 831 463 398 468 588 676 648 708 846 682 299 232 217
4569 4670 4553 4035 3695 3595 3092 2678 2696 2521 2346 2339 2342 1889 1990 2082 2049 1859 1598 1410 1337 1200 588 640 641 688 770 845 684 578 447 148 88 69 16 0 0 59 551 608 759 942 1287 1494 1708 1848 1969 2000 1724 1691 1711 1600 1475 1663 1709 1375 1238 1162 1252 1206 1106 431 452 85 0 0 89 450 697 720 827 792 563 617 592 682 343 581 357 422 378 308 240 235 216
4432 4606 4439 3924 3537 3229 2757 2706 2688 2410 2218 2208 2226 1955 1774 1930 1912 1822 1717 1654 1361 961 732 870 517 744 670 687 787 610 296 37 92 88 12 0 0 8 507 735 858 1053 1250 1509 1871 2033 1962 1604 1442 1526 1474 1210 1291 1228 1466 1163 975 641 465 364 198 132 228 260 200 663 577 335 500 846 896 850 864 746 772 514 624 448 256 140 192 159 126 90 78
4395 4474 4349 3854 3500 3326 3051 2737 2641 2492 2225 2153 2012 1867 1791 1810 1841 1816 1737 1664 1491 1195 764 699 443 502 521 494 298 572 72 0 70 104 51 0 0 202 541 877 1031 1147 1436 1680 1964 2064 1478 958 958 834 1076 1156 1089 713 486 646 597 523 421 252 182 170 199 104 130 108 149 154 162 273 305 170 14 11 25 27 13 44 63 25 34 42 47 67 94
4344 4353 3932 3704 3234 3205 2889 2650 2560 2445 2292 2112 1924 1811 1893 1783 1779 1767 1763 1720 1614 1590 1288 828 576 482 315 240 584 377 50 192 0 0 0 0 0 360 698 880 1069 1251 1456 1772 1908 1474 1331 1213 1038 1021 1072 1250 1115 423 0 6 283 225 252 162 142 196 163 104 436 2 0 0 0 0 0 0 0 0 0 0 0 0 0 0 0 12 54 16 10
4106 4147 3958 3690 3164 2980 2784 2502 2457 2337 2144 1952 1897 1778 1685 1750 1772 1791 1723 1750 1662 1340 1052 530 492 453 228 83 440 528 217 102 136 132 103 0 14 680 1034 1202 1306 1368 1767 1784 1396 915 772 776 952 876 774 1010 316 0 0 4 134 178 211 136 148 146 132 188 268 865 0 0 0 0 0 0 0 0 0 0 0 0 0 2 1 8 13 13 15
3988 4064 3936 3579 2993 2705 2702 2581 2423 2255 2148 1949 1678 1689 1753 1778 1768 1720 1702 1647 1668 1188 788 593 549 395 123 158 390 472 180 336 654 784 683 519 429 755 1197 1577 1526 1770 1696 1389 1075 875 1080 1097 502 328 601 558 0 0 0 0 10 95 194 130 110 125 151 143 111 155 141 126 140 422 583 266 341 376 402 13 0 0 53 78 44 16 20 20 11
3919 3992 3772 3338 2737 2636 2441 2392 2364 2205 2176 1982 1948 1866 1717 1716 1631 1642 1664 1574 1428 984 694 711 533 395 293 412 252 567 518 579 1402 849 832 734 558 786 1425 1515 1592 1530 1420 992 836 1386 1525 1550 615 0 0 0 0 0 0 0 0 25 139 131 93 124 168 92 105 52 65 66 90 83 96 80 58 52 58 36 29 35 22 7 11 10 6 5 2
4034 3801 3635 3049 2410 2600 2411 2255 2136 2002 2038 1955 1649 1643 1648 1586 1538 1516 1501 1260 1040 847 838 610 325 203 277 193 343 632 882 1168 2221 1035 874 640 434 600 1478 1596 1562 1374 1100 989 1155 1114 1106 856 321 116 0 0 0 0 0 0 0 0 3 110 82 52 1 42 57 17 59 87 74 21 5 9 6 4 4 0 0 0 0 0 0 0 0 0 0
3835 3711 3465 2920 2311 2404 2164 1862 1833 1890 1965 1625 1623 1565 1494 1386 1314 1228 1225 1091 988 865 661 368 233 279 276 765 1063 1226 1350 942 1281 1040 841 572 599 683 1138 1365 1336 1116 1013 1060 864 488 278 298 267 242 0 0 0 0 0 0 0 0 0 0 0 0 0 4 14 16 14 2 0 0 0 0 0 0 0 0 0 0 0 0 0 0 0 0 0
3569 3450 3134 2656 2115 2305 2202 1930 1693 1630 1780 1622 1620 1527 1425 1334 1183 1042 918 779 680 651 508 668 684 966 1441 1602 2082 1826 1438 1212 715 811 577 568 546 473 495 1013 609 1442 743 619 524 396 182 190 98 0 0 0 0 0 0 0 0 1 0 0 0 0 0 0 4 3 6 4 3 6 7 5 0 0 0 0 0 0 0 0 0 0 0 0 0
3070 2674 2547 2335 2342 2239 2104 1843 1520 1665 1646 1580 1512 1421 1361 1231 1084 940 768 689 648 734 800 779 832 1083 1536 1624 1341 1212 981 937 818 460 398 350 420 581 658 687 720 684 662 642 298 183 208 441 0 0 0 0 0 0 0 0 2 0 0 0 0 0 0 0 4 7 6 3 8 8 4 0 0 0 0 0 0 0 0 0 0 0 0 0 0
2758 2578 2288 2080 2203 2120 1879 1691 1601 1674 1574 1448 1338 1307 1160 1054 1034 836 832 881 843 659 602 812 913 1308 1229 1301 1428 1095 811 866 581 475 484 588 676 690 715 762 649 444 366 550 582 359 0 0 0 0 0 0 0 0 0 0 0 0 0 0 0 0 2 5 6 6 8 7 2 0 0 0 0 0 0 0 0 0 0 0 0 0 0 0 0
2396 2221 2090 1962 1914 1910 1851 1623 1640 1587 1519 1311 1226 1232 1022 1002 1075 1019 861 863 848 758 799 878 888 788 829 1240 1366 1032 919 800 592 628 768 821 681 708 671 526 375 306 129 169 0 0 0 0 0 0 0 0 0 0 22 0 0 0 0 0 0 0 0 0 2 2 3 0 0 0 0 0 0 0 0 0 0 0 0 0 0 0 0 0 0
2107 1984 2110 1910 1819 1854 1814 1406 1420 1440 1367 1249 1192 1096 1015 882 1054 1038 1011 868 670 833 902 986 933 859 1667 1612 1318 1094 780 430 569 681 532 624 622 578 456 324 219 86 0 29 0 0 0 0 0 0 0 0 0 0 0 0 0 0 0 0 0 1 1 4 0 0 0 0 0 0 0 0 0 0 0 0 0 0 0 0 0 0 0 1 5
1928 1899 1900 1719 1780 1670 1706 1515 1238 1298 1248 1194 1117 1066 1048 1074 991 900 877 918 857 997 982 1002 1030 959 1268 1253 941 1038 642 679 639 480 411 551 546 404 236 172 68 59 95 194 210 47 0 0 0 0 0 4 2 2 3 4 2 0 0 0 0 0 0 0 0 0 0 0 0 0 0 0 0 0 0 0 0 0 0 0 0 0 0 2 6
1927 2084 1905 1780 1708 1654 1507 1397 1104 1185 1224 1162 1020 937 928 778 690 739 1077 1204 1066 1002 1074 1006 1030 956 1053 1038 883 784 610 656 820 658 969 312 1346 522 483 370 267 384 244 2 84 17 0 2 8 2 4 2 6 3 4 5 10 3 0 0 0 0 0 0 0 0 0 0 0 0 0 0 0 0 0 0 0 0 0 0 0 0 4 9 14
1759 1737 1580 1495 1273 1262 1342 1367 1386 1158 1257 1241 1063 872 728 600 474 603 665 778 864 1020 930 1233 936 1169 1110 881 670 706 732 836 499 558 316 208 62 0 80 90 0 0 0 0 0 0 1 3 12 7 16 13 7 6 5 7 8 2 0 0 0 0 0 0 0 0 0 0 0 0 0 0 0 0 0 0 0 0 0 0 0 0 4 5 6
1350 1408 1322 1151 1062 1089 1093 1185 1453 1181 1248 1322 1140 904 690 537 503 502 628 690 649 608 516 334 327 800 1226 445 416 498 452 491 524 367 81 0 0 0 0 0 0 0 0 0 0 0 0 4 5 7 5 3 6 3 2 0 0 0 0 0 0 0 0 0 0 0 0 0 0 0 0 0 0 0 0 0 0 0 0 0 0 0 0 0 6
1406 1296 1117 1136 1165 1183 1223 1328 1177 1070 1268 1259 1091 819 654 589 534 478 509 456 353 337 394 430 538 530 577 554 544 530 514 467 88 0 0 0 0 0 0 0 0 0 0 0 1 6 1 1 0 1 4 8 6 4 0 0 0 0 0 0 0 0 0 0 0 0 0 0 0 0 0 0 0 0 0 0 0 0 0 0 0 0 0 0 7
1307 1084 1370 1427 1418 1215 1269 1226 1128 1024 1128 1171 1044 847 588 482 416 200 21 382 543 597 691 783 766 665 608 598 458 375 224 0 0 0 0 0 0 0 0 0 0 0 0 0 0 0 2 8 8 7 7 8 7 2 0 0 0 0 0 0 0 0 0 0 0 0 0 0 0 0 0 0 0 0 0 0 0 0 0 0 0 0 0 0 4
1367 1166 1236 1223 1416 1351 1219 1158 1096 1040 994 985 910 624 270 350 390 402 591 552 471 576 725 876 866 700 646 455 50 0 0 0 0 0 0 0 0 0 0 0 0 0 0 0 0 0 5 10 9 5 10 8 1 0 0 0 0 0 0 0 0 0 0 0 0 0 0 0 0 0 0 0 0 0 0 0 0 0 0 0 0 0 0 0 0
1467 1356 975 1062 1319 1167 1069 1249 990 946 900 809 704 537 474 543 483 577 642 536 715 843 772 640 668 577 319 0 0 0 0 0 0 0 0 0 0 0 0 0 0 0 0 0 0 0 0 3 8 11 6 8 8 0 0 0 0 0 0 0 0 0 0 0 0 0 0 0 0 0 0 0 0 0 0 0 0 0 0 0 0 0 0 0 0
1492 1616 1478 939 829 1023 1066 859 894 853 699 662 590 490 526 316 112 128 319 826 897 776 636 502 445 268 0 0 0 0 0 0 0 0 0 0 0 0 0 0 1 4 2 1 6 7 4 4 7 10 10 7 0 0 0 0 0 0 0 0 0 0 0 0 0 0 0 0 0 0 0 0 0 0 0 0 0 0 0 0 0 0 0 0 0
1140 949 967 1051 1015 1087 1207 981 894 849 514 741 591 588 194 131 184 574 662 499 362 58 38 10 0 0 0 0 0 0 0 0 0 0 0 0 0 0 2 0 4 4 1 4 4 6 1 1 0 1 4 0 0 0 0 0 0 0 0 0 0 0 0 0 0 0 0 0 0 0 0 0 0 0 0 0 0 0 0 0 0 0 0 0 0
1251 1224 1502 1559 1657 1390 985 1070 594 606 470 424 766 778 118 66 820 717 354 54 32 8 0 0 0 0 0 0 0 0 0 0 0 0 0 0 0 0 0 0 0 0 0 5 2 0 0 0 0 0 2 0 0 0 0 0 0 0 0 0 0 0 0 0 0 0 0 0 0 0 0 0 0 0 0 0 0 0 0 0 0 0 0 0 0
1747 1300 1172 863 1112 1246 1086 848 491 572 512 544 645 548 248 738 759 763 722 506 174 351 122 158 101 0 0 0 0 0 0 0 0 0 0 0 0 0 0 0 0 0 0 0 0 0 0 0 0 2 2 0 0 0 0 0 0 0 0 0 0 0 0 0 0 0 0 0 0 0 0 0 0 0 0 0 0 0 0 0 0 0 0 0 0
1709 1376 1077 830 1033 928 824 630 454 540 555 666 591 486 510 667 692 741 758 486 406 280 316 201 110 10 46 98 0 0 0 0 0 0 0 0 0 0 0 0 0 0 0 0 0 0 0 0 1 4 3 5 0 0 0 0 0 0 0 0 0 0 0 0 0 0 0 0 0 0 0 0 0 0 0 0 0 0 0 0 0 0 0 0 0
1669 1534 778 780 991 804 716 708 850 948 675 664 707 764 736 599 665 675 337 174 290 263 244 176 82 125 168 126 30 0 3 10 1 1 2 5 3 0 0 0 0 0 0 0 0 0 0 0 0 2 4 3 5 0 0 0 0 0 0 0 0 0 0 0 0 0 0 0 0 0 0 0 0 0 0 0 0 0 0 0 0 0 0 0 0
813 1072 1015 952 833 1152 1117 1083 1106 878 904 736 540 436 569 432 432 100 329 200 242 235 192 275 205 180 181 115 0 2 8 5 3 2 4 3 2 0 0 0 0 0 0 0 0 0 0 1 0 1 2 4 1 0 0 0 0 0 0 0 0 0 0 0 0 0 0 0 0 0 0 0 0 0 0 0 0 0 0 0 0 0 0 0 0
601 761 702 712 1194 1187 1162 1085 1021 810 575 524 523 475 422 482 560 545 361 209 268 190 209 248 116 119 169 30 13 20 11 38 2 4 6 8 5 6 1 0 0 0 0 0 0 0 0 0 3 3 3 4 1 0 0 0 0 0 0 0 0 0 0 0 0 0 0 0 0 0 0 0 0 0 0 0 0 0 0 0 0 0 0 0 0
576 547 557 633 750 700 735 723 576 587 594 485 496 501 496 384 419 469 440 308 257 301 430 350 205 108 146 12 10 8 2 25 5 2 6 6 8 7 6 6 0 0 0 0 0 0 0 0 1 2 3 1 0 0 0 0 0 0 0 0 0 0 0 0 0 0 0 0 0 0 0 0 0 0 0 0 0 0 0 0 0 0 0 0 0
328 289 879 1066 1032 1076 1083 897 653 664 476 540 622 569 382 328 308 334 388 398 339 320 299 294 238 95 23 9 4 3 2 3 10 10 5 8 8 10 8 4 0 0 0 0 0 0 0 0 0 0 2 0 0 0 0 0 0 0 0 0 0 0 0 0 0 0 0 0 0 0 0 0 0 0 0 0 0 0 0 0 0 0 0 0 0
302 560 872 881 681 626 554 594 617 623 582 656 641 612 587 576 596 492 371 387 290 406 427 397 388 130 4 4 3 0 0 1 3 2 2 4 8 6 9 2 0 0 0 0 0 0 0 0 0 0 0 0 0 0 0 0 0 0 0 0 0 0 0 0 0 0 0 0 0 0 0 0 0 0 0 0 0 0 0 0 0 0 0 0 0
885 876 891 930 936 825 784 693 1016 948 833 663 690 719 670 701 714 637 546 478 474 451 510 456 230 203 74 15 4 8 0 0 1 6 10 13 11 8 5 0 0 0 0 0 0 0 0 0 0 0 0 0 0 0 0 0 0 0 0 0 0 0 0 0 0 0 0 0 0 0 0 0 0 0 0 0 0 0 0 0 0 0 0 0 0
702 615 580 709 773 701 606 722 686 616 666 653 726 711 689 672 612 584 596 506 471 499 362 280 295 84 63 3 11 2 2 2 2 10 14 19 14 9 0 0 0 0 0 0 0 0 0 0 0 0 0 0 0 0 0 0 0 0 0 0 0 0 0 0 0 0 0 0 0 0 0 0 0 0 0 0 0 0 0 0 0 0 0 0 0
616 639 641 596 596 576 583 618 522 478 607 720 586 539 503 468 445 469 452 459 483 392 223 216 201 124 57 19 2 4 3 8 7 5 18 21 16 10 1 0 0 0 0 0 0 0 0 0 0 0 0 0 0 0 0 0 0 0 0 0 0 0 0 0 0 0 0 0 0 0 0 0 0 0 0 0 0 0 0 0 0 0 0 0 0
620 682 700 584 596 674 786 782 532 439 456 481 487 432 315 331 280 237 74 92 88 63 26 7 1 0 0 2 10 9 8 9 9 10 8 9 12 10 5 1 0 0 0 0 0 0 0 0 0 0 0 0 0 0 0 0 0 0 0 0 0 0 0 0 0 0 0 0 0 0 0 0 0 0 0 0 0 0 0 0 0 0 0 0 0
571 579 576 574 601 558 485 574 432 499 496 441 387 234 57 11 0 0 0 1 1 1 1 1 0 0 0 0 0 0 2 3 1 2 13 9 18 10 12 10 1 0 0 0 0 0 0 0 0 0 0 0 0 0 0 0 0 0 0 0 0 0 0 0 0 0 0 0 0 0 0 0 0 0 0 0 0 0 0 0 0 0 0 0 0
Wind_Speed
17 16 17 16 16 17 17 18 21 22 23 22 22 26 28 30 31 32 34 34 35 36 36 36 37 37 37 38 38 37 35 32 31 30 29 26 25 23 24 26 27 27 25 24 24 24 24 24 23 22 23 24 26 27 28 28 28 30 33 34 34 36 37 37 36 34 33 36 nan nan nan nan nan nan 34 36 38 40 nan 41 42 42 43 44 42
16 16 16 15 16 17 18 20 22 22 23 23 23 26 30 32 34 36 38 39 40 41 39 39 39 39 39 40 40 40 37 33 29 29 29 27 26 26 25 26 27 25 24 24 24 24 24 24 23 22 23 24 26 27 27 27 30 32 36 37 37 38 40 39 38 36 33 33 34 nan nan nan nan nan nan nan 38 41 41 43 45 44 44 43 nan
16 16 15 15 17 18 19 22 24 26 26 25 26 29 34 37 39 41 42 43 44 44 44 43 43 42 41 42 42 42 39 33 29 28 29 28 27 26 26 27 25 24 24 25 24 23 22 24 23 23 24 24 26 26 27 29 31 33 35 36 37 38 40 42 41 39 nan nan nan nan 36 37 nan nan nan nan 39 42 42 43 45 46 nan nan 41
15 16 16 18 20 21 23 25 27 28 28 28 29 33 36 39 41 43 44 44 45 45 44 46 47 46 44 44 43 40 37 32 30 31 31 30 28 26 26 27 25 23 24 25 23 22 22 23 23 23 23 24 25 28 30 32 33 34 35 37 38 39 41 43 44 43 41 39 41 39 38 38 40 39 38 nan nan 41 43 44 45 nan nan 43 41
16 18 19 21 22 23 25 26 27 29 31 31 35 37 38 39 41 43 44 44 46 46 44 44 46 48 45 43 40 37 36 32 32 32 32 30 28 27 26 27 26 24 25 25 23 23 24 24 23 23 24 25 27 30 32 33 35 35 36 37 40 42 43 43 44 44 43 41 42 44 43 41 40 38 38 nan nan 41 42 nan nan nan nan nan nan
18 20 20 21 23 25 25 26 27 30 34 34 36 37 37 39 42 43 45 46 45 45 43 41 42 46 44 40 36 34 34 31 31 32 30 28 28 27 26 26 26 25 23 24 25 26 26 24 23 24 25 26 28 30 33 34 35 36 36 38 40 41 42 43 43 43 43 42 42 41 43 42 41 40 39 39 nan nan nan nan 45 nan nan nan nan
19 20 21 22 22 24 25 25 25 28 32 33 35 38 39 41 42 44 45 45 43 42 41 40 40 43 43 37 32 31 32 30 29 31 29 27 27 26 24 23 22 23 23 25 27 27 25 24 24 24 25 26 28 30 33 35 36 35 36 39 41 41 41 43 43 42 41 42 43 41 41 42 42 nan 42 42 42 43 44 nan nan 45 43 40 37
19 19 19 20 22 23 24 25 26 29 32 33 36 38 39 39 39 41 43 43 43 42 41 40 39 39 39 37 33 33 34 32 30 31 30 30 29 26 22 20 18 20 24 27 26 25 24 24 24 24 26 27 29 32 35 36 37 36 39 40 41 40 41 42 42 41 41 42 42 41 41 40 40 41 42 44 44 43 43 nan nan 39 39 38 34
20 20 20 21 22 23 26 28 29 31 32 34 36 39 41 41 41 41 42 41 40 43 42 41 41 39 37 37 38 38 36 31 28 30 31 29 27 22 18 18 18 21 25 26 26 25 25 25 25 25 26 28 32 35 36 37 37 37 39 40 40 40 40 40 41 40 42 41 40 41 39 39 40 39 40 41 41 39 38 37 36 36 35 33 31
22 23 24 25 25 27 30 32 33 32 33 37 39 41 43 44 44 42 42 41 41 41 42 41 41 41 40 39 39 37 33 29 28 32 30 28 25 21 18 19 21 24 26 26 26 26 26 27 27 26 28 32 39 41 40 40 43 42 41 40 40 40 39 38 38 38 39 39 37 37 36 36 37 39 41 39 36 35 34 34 31 32 33 29 27
24 26 27 27 29 31 33 35 35 33 34 38 41 43 45 44 43 42 41 39 39 40 41 41 39 40 nan 39 37 33 29 27 31 nan nan nan 26 21 18 21 25 26 27 26 26 26 28 28 27 27 33 39 41 43 42 44 nan nan nan nan nan 41 40 37 36 37 38 37 35 36 35 33 32 35 39 37 36 35 35 33 31 30 30 28 24
26 27 28 30 31 34 36 38 36 34 36 39 42 44 46 45 42 43 43 41 36 37 39 39 37 38 nan 37 32 28 26 29 35 nan nan nan nan 22 20 24 27 28 27 26 27 28 28 27 28 30 33 36 36 42 47 48 46 45 nan nan nan nan nan 42 40 39 38 36 34 33 32 32 31 32 34 34 34 33 31 30 29 27 25 25 23
27 29 30 33 34 35 39 40 37 36 38 40 42 44 46 45 43 44 44 41 37 37 37 36 35 35 36 34 30 28 27 35 38 nan nan nan nan 25 24 25 27 27 26 27 26 27 28 29 31 33 35 42 39 40 40 43 49 47 45 44 43 43 nan nan nan 41 37 35 33 31 31 30 28 31 35 35 32 29 29 28 26 23 22 21 20
29 30 32 34 35 38 40 39 39 40 41 42 43 45 45 44 43 43 42 41 39 38 35 34 33 33 34 32 29 29 29 37 nan nan nan nan nan nan 27 25 25 25 25 25 27 27 30 32 33 34 35 40 42 42 42 41 39 41 43 43 42 44 48 nan nan nan nan 36 34 31 30 31 30 30 31 33 29 29 29 22 19 17 18 17 16
32 33 34 37 39 40 40 39 41 43 43 43 44 45 45 44 43 42 43 42 41 39 39 35 32 34 33 30 29 30 31 nan nan nan nan nan nan nan 28 26 25 25 25 26 27 29 32 35 33 32 35 39 41 42 40 38 37 37 36 36 36 36 37 37 39 41 41 38 35 32 30 32 32 31 32 32 28 25 22 18 16 15 16 nan nan
36 36 37 40 41 41 41 42 43 45 45 45 46 46 46 47 45 42 41 41 41 41 39 34 31 33 32 29 28 30 nan nan nan 33 nan nan nan 30 28 27 25 24 25 26 29 34 37 36 36 36 39 40 50 49 45 39 37 37 36 36 36 36 36 39 45 39 35 33 33 31 30 30 nan nan nan nan nan nan nan nan nan nan nan nan nan
39 39 39 40 42 44 44 44 45 46 45 46 47 47 48 49 45 42 42 42 42 42 39 34 32 33 32 29 28 30 nan 38 nan nan nan nan nan 28 28 28 26 25 26 28 30 33 34 37 38 41 43 41 51 51 nan nan 38 37 38 37 36 36 37 38 50 nan nan nan nan nan nan nan nan nan nan nan nan nan nan nan nan nan nan nan nan
41 41 41 43 44 46 48 47 47 48 47 47 48 48 49 49 45 42 41 41 40 39 36 33 32 32 31 nan 29 30 29 32 31 25 27 nan nan 29 28 28 27 27 27 29 33 35 33 37 43 42 41 42 53 nan nan nan 40 40 38 36 35 35 37 37 40 45 nan nan nan nan nan nan nan nan nan nan nan nan nan nan nan nan nan nan nan
42 42 43 44 46 48 50 49 48 48 48 49 49 49 50 48 43 39 38 37 37 36 34 33 33 32 31 29 32 30 27 28 30 29 33 37 34 29 27 26 27 27 29 31 32 35 38 45 48 43 41 50 nan nan nan nan nan nan 38 36 35 35 37 37 36 34 34 33 32 33 34 35 36 34 32 nan nan nan nan nan nan nan nan nan nan
43 43 44 46 47 50 50 50 49 49 49 51 50 48 48 45 41 39 38 37 36 33 32 32 34 33 32 30 30 29 27 24 33 37 40 40 35 27 23 24 26 29 31 32 33 37 40 42 51 nan nan nan nan nan nan nan nan nan 39 37 nan 35 38 nan 36 nan nan nan nan nan nan nan nan nan nan nan nan nan nan nan nan nan nan nan nan
46 46 48 48 50 52 52 51 50 49 50 52 49 45 44 42 40 38 38 37 34 32 32 32 33 32 30 28 27 30 30 27 38 41 41 36 30 23 24 27 30 32 33 33 35 37 41 43 42 53 nan nan nan nan nan nan nan nan nan 38 nan nan nan nan nan nan nan nan nan nan nan nan nan nan nan nan nan nan nan nan nan nan nan nan nan
50 50 50 51 52 53 53 53 51 49 52 52 48 41 39 41 39 37 36 36 35 33 33 33 32 31 29 28 30 32 37 36 30 38 36 33 29 28 28 31 33 35 36 34 36 38 40 42 42 52 nan nan nan nan nan nan nan nan nan nan nan nan nan nan nan nan nan nan nan nan nan nan nan nan nan nan nan nan nan nan nan nan nan nan nan
53 52 52 52 53 54 56 57 53 50 51 50 43 39 40 41 40 38 36 34 34 35 36 35 34 33 32 32 35 36 35 33 30 29 34 32 31 30 29 32 41 35 33 34 37 40 43 43 nan nan nan nan nan nan nan nan nan nan nan nan nan nan nan nan nan nan nan nan nan nan nan nan nan nan nan nan nan nan nan nan nan nan nan nan nan
53 52 52 53 53 54 56 57 52 47 46 44 39 39 42 42 41 40 38 35 35 36 36 35 34 33 33 35 36 36 35 29 36 35 35 31 30 31 33 36 37 37 36 36 40 42 43 45 nan nan nan nan nan nan nan nan nan nan nan nan nan nan nan nan nan nan nan nan nan nan nan nan nan nan nan nan nan nan nan nan nan nan nan nan nan
54 54 53 53 53 54 55 53 47 43 42 41 39 40 42 42 41 41 38 36 35 36 37 36 35 35 36 38 36 35 33 32 38 43 40 31 30 33 35 38 40 41 40 42 41 48 nan nan nan nan nan nan nan nan nan nan nan nan nan nan nan nan nan nan nan nan nan nan nan nan nan nan nan nan nan nan nan nan nan nan nan nan nan nan nan
54 54 54 53 52 52 51 46 41 39 38 39 39 40 41 42 42 41 38 36 36 37 38 37 37 37 37 37 37 36 35 36 41 41 35 30 31 37 40 42 44 41 39 43 nan nan nan nan nan nan nan nan nan nan nan nan nan nan nan nan nan nan nan nan nan nan nan nan nan nan nan nan nan nan nan nan nan nan nan nan nan nan nan nan nan
50 50 50 50 48 46 43 40 38 37 38 40 40 40 41 40 41 40 39 38 37 37 39 39 39 39 38 37 36 35 34 36 36 33 29 32 38 43 43 43 43 nan nan nan nan nan nan nan nan nan nan nan nan nan nan nan nan nan nan nan nan nan nan nan nan nan nan nan nan nan nan nan nan nan nan nan nan nan nan nan nan nan nan nan nan
46 45 45 44 43 41 38 39 38 38 40 40 40 40 40 40 40 41 41 41 39 39 41 41 40 39 36 36 34 31 33 35 32 29 31 37 42 42 42 43 nan nan nan 42 41 nan nan nan nan nan nan nan nan nan nan nan nan nan nan nan nan nan nan nan nan nan nan nan nan nan nan nan nan nan nan nan nan nan nan nan nan nan nan nan nan
43 43 42 41 40 40 38 39 37 38 40 41 43 44 41 39 39 44 47 42 39 38 39 41 39 37 37 37 35 34 34 32 26 30 36 45 42 43 43 43 42 42 46 nan nan nan nan nan nan nan nan nan nan nan nan nan nan nan nan nan nan nan nan nan nan nan nan nan nan nan nan nan nan nan nan nan nan nan nan nan nan nan nan nan nan
42 42 41 40 39 40 38 39 39 38 40 45 45 48 53 52 47 44 47 45 45 43 39 38 39 43 43 39 38 36 32 29 40 50 51 52 nan nan nan nan nan nan nan nan nan nan nan nan nan nan nan nan nan nan nan nan nan nan nan nan nan nan nan nan nan nan nan nan nan nan nan nan nan nan nan nan nan nan nan nan nan nan nan nan nan
41 41 41 40 40 40 40 38 40 39 42 46 46 48 49 49 49 47 44 39 34 34 40 44 46 46 43 44 43 47 48 50 55 59 nan nan nan nan nan nan nan nan nan nan nan nan nan nan nan nan nan nan nan nan nan nan nan nan nan nan nan nan nan nan nan nan nan nan nan nan nan nan nan nan nan nan nan nan nan nan nan nan nan nan nan
42 41 42 42 44 41 40 42 44 46 45 46 49 51 51 47 41 42 44 41 37 34 37 39 42 45 46 49 45 43 47 55 nan nan nan nan nan nan nan nan nan nan nan nan nan nan nan nan nan nan nan nan nan nan nan nan nan nan nan nan nan nan nan nan nan nan nan nan nan nan nan nan nan nan nan nan nan nan nan nan nan nan nan nan nan
43 44 44 45 43 43 43 46 45 45 46 47 47 47 47 45 44 41 nan 44 45 43 41 40 42 45 48 49 48 49 53 nan nan nan nan nan nan nan nan nan nan nan nan nan nan nan nan nan nan nan nan nan nan nan nan nan nan nan nan nan nan nan nan nan nan nan nan nan nan nan nan nan nan nan nan nan nan nan nan nan nan nan nan nan nan
43 44 45 44 41 42 43 45 44 45 45 46 46 47 45 44 45 47 45 43 48 52 50 45 43 45 47 50 nan nan nan nan nan nan nan nan nan nan nan nan nan nan nan nan nan nan nan nan nan nan nan nan nan nan nan nan nan nan nan nan nan nan nan nan nan nan nan nan nan nan nan nan nan nan nan nan nan nan nan nan nan nan nan nan nan
45 47 47 43 42 43 43 43 44 45 47 48 48 48 47 48 49 49 48 48 51 52 47 44 46 46 46 nan nan nan nan nan nan nan nan nan nan nan nan nan nan nan nan nan nan nan nan nan nan nan nan nan nan nan nan nan nan nan nan nan nan nan nan nan nan nan nan nan nan nan nan nan nan nan nan nan nan nan nan nan nan nan nan nan nan
47 47 48 45 42 43 44 44 46 48 49 50 50 47 49 49 47 45 46 46 47 47 47 46 45 44 nan nan nan nan nan nan nan nan nan nan nan nan nan nan nan nan nan nan nan nan nan nan nan nan nan nan nan nan nan nan nan nan nan nan nan nan nan nan nan nan nan nan nan nan nan nan nan nan nan nan nan nan nan nan nan nan nan nan nan
47 47 47 46 45 47 48 50 49 50 50 49 48 47 47 45 42 41 41 42 43 nan nan nan nan nan nan nan nan nan nan nan nan nan nan nan nan nan nan nan nan nan nan nan nan nan nan nan nan nan nan nan nan nan nan nan nan nan nan nan nan nan nan nan nan nan nan nan nan nan nan nan nan nan nan nan nan nan nan nan nan nan nan nan nan
46 46 47 49 48 49 50 53 55 56 51 48 47 46 44 nan 40 39 39 nan nan nan nan nan nan nan nan nan nan nan nan nan nan nan nan nan nan nan nan nan nan nan nan nan nan nan nan nan nan nan nan nan nan nan nan nan nan nan nan nan nan nan nan nan nan nan nan nan nan nan nan nan nan nan nan nan nan nan nan nan nan nan nan nan nan
47 53 56 55 51 52 51 52 51 50 49 47 47 46 44 40 39 37 40 45 47 47 47 48 49 nan nan nan nan nan nan nan nan nan nan nan nan nan nan nan nan nan nan nan nan nan nan nan nan nan nan nan nan nan nan nan nan nan nan nan nan nan nan nan nan nan nan nan nan nan nan nan nan nan nan nan nan nan nan nan nan nan nan nan nan
50 51 53 55 52 51 49 49 49 49 48 47 48 47 45 42 40 40 44 47 45 46 48 50 50 nan nan nan nan nan nan nan nan nan nan nan nan nan nan nan nan nan nan nan nan nan nan nan nan nan nan nan nan nan nan nan nan nan nan nan nan nan nan nan nan nan nan nan nan nan nan nan nan nan nan nan nan nan nan nan nan nan nan nan nan
49 52 51 49 50 49 49 49 49 50 49 48 47 46 46 43 42 42 44 44 46 47 49 50 nan 56 56 50 nan nan nan nan nan nan nan nan nan nan nan nan nan nan nan nan nan nan nan nan nan nan nan nan nan nan nan nan nan nan nan nan nan nan nan nan nan nan nan nan nan nan nan nan nan nan nan nan nan nan nan nan nan nan nan nan nan
47 50 50 49 50 48 49 48 50 51 50 49 48 47 47 45 44 nan 46 45 46 45 47 51 56 55 51 47 nan nan nan nan nan nan nan nan nan nan nan nan nan nan nan nan nan nan nan nan nan nan nan nan nan nan nan nan nan nan nan nan nan nan nan nan nan nan nan nan nan nan nan nan nan nan nan nan nan nan nan nan nan nan nan nan nan
45 45 44 46 46 47 47 48 49 49 48 47 47 46 46 45 44 45 45 45 43 45 45 48 49 45 41 nan nan nan nan nan nan nan nan nan nan nan nan nan nan nan nan nan nan nan nan nan nan nan nan nan nan nan nan nan nan nan nan nan nan nan nan nan nan nan nan nan nan nan nan nan nan nan nan nan nan nan nan nan nan nan nan nan nan
41 41 42 42 43 44 44 44 44 45 44 47 47 46 45 43 41 40 41 43 43 41 39 36 37 38 38 nan nan nan nan nan nan nan nan nan nan nan nan nan nan nan nan nan nan nan nan nan nan nan nan nan nan nan nan nan nan nan nan nan nan nan nan nan nan nan nan nan nan nan nan nan nan nan nan nan nan nan nan nan nan nan nan nan nan
36 37 38 39 39 40 40 40 41 43 45 45 44 44 42 40 39 38 38 38 37 34 33 33 36 nan nan nan nan nan nan nan nan nan nan nan nan nan nan nan nan nan nan nan nan nan nan nan nan nan nan nan nan nan nan nan nan nan nan nan nan nan nan nan nan nan nan nan nan nan nan nan nan nan nan nan nan nan nan nan nan nan nan nan nan
33 34 35 37 38 38 38 38 38 39 39 39 40 40 39 38 38 38 37 35 33 32 32 34 34 34 nan nan nan nan nan nan nan nan nan nan nan nan nan nan nan nan nan nan nan nan nan nan nan nan nan nan nan nan nan nan nan nan nan nan nan nan nan nan nan nan nan nan nan nan nan nan nan nan nan nan nan nan nan nan nan nan nan nan nan
32 34 35 36 37 37 37 37 36 37 36 36 36 36 35 35 35 36 36 35 34 34 34 34 33 32 nan nan nan nan nan nan nan nan nan nan nan nan nan nan nan nan nan nan nan nan nan nan nan nan nan nan nan nan nan nan nan nan nan nan nan nan nan nan nan nan nan nan nan nan nan nan nan nan nan nan nan nan nan nan nan nan nan nan nan
33 33 34 36 36 36 36 35 36 34 33 33 33 34 34 33 34 34 34 34 33 33 33 33 31 nan nan nan nan nan nan nan nan nan nan nan nan nan nan nan nan nan nan nan nan nan nan nan nan nan nan nan nan nan nan nan nan nan nan nan nan nan nan nan nan nan nan nan nan nan nan nan nan nan nan nan nan nan nan nan nan nan nan nan nan
33 34 35 34 34 34 34 34 33 31 32 32 33 32 32 31 31 31 31 30 29 29 27 27 27 26 nan nan nan nan nan nan nan nan nan nan nan nan nan nan nan nan nan nan nan nan nan nan nan nan nan nan nan nan nan nan nan nan nan nan nan nan nan nan nan nan nan nan nan nan nan nan nan nan nan nan nan nan nan nan nan nan nan nan nan
33 33 33 34 32 32 32 32 31 31 31 29 29 30 30 29 29 27 nan nan nan nan nan nan nan nan nan nan nan nan nan nan nan nan nan nan nan nan nan nan nan nan nan nan nan nan nan nan nan nan nan nan nan nan nan nan nan nan nan nan nan nan nan nan nan nan nan nan nan nan nan nan nan nan nan nan nan nan nan nan nan nan nan nan nan
31 31 31 30 30 30 29 28 28 28 27 26 27 27 nan nan nan nan nan nan nan nan nan nan nan nan nan nan nan nan nan nan nan nan nan nan nan nan nan nan nan nan nan nan nan nan nan nan nan nan nan nan nan nan nan nan nan nan nan nan nan nan nan nan nan nan nan nan nan nan nan nan nan nan nan nan nan nan nan nan nan nan nan nan nan
Wind_Direction
310 305 303 308 312 319 325 326 327 323 323 328 329 321 317 316 316 315 313 316 318 316 314 314 312 310 309 308 308 307 305 298 294 296 298 297 294 292 292 296 297 297 297 299 299 296 298 303 306 307 308 312 313 314 315 316 317 319 319 317 315 314 314 314 313 312 307 304 nan nan nan nan nan nan 292 290 288 286 nan 287 285 284 285 287 287
307 307 308 311 323 326 330 324 321 320 320 324 330 325 320 320 321 321 321 321 322 318 316 313 311 309 309 308 306 306 307 299 290 293 295 295 296 294 295 297 296 295 293 294 297 297 300 306 304 302 308 314 315 317 316 314 314 316 317 316 315 314 314 315 314 312 309 302 301 nan nan nan nan nan nan nan 287 286 285 285 285 284 284 284 nan
310 308 310 313 325 325 322 315 313 317 318 323 330 328 326 325 322 323 324 322 321 319 317 314 310 311 310 308 305 306 311 304 290 290 292 292 295 296 292 292 293 291 290 292 294 295 301 302 300 300 304 312 316 317 317 315 313 315 316 315 316 316 315 317 315 315 nan nan nan nan 299 297 nan nan nan nan 286 285 284 285 284 283 nan nan 285
309 309 311 318 323 319 315 313 316 317 322 324 332 334 333 328 322 324 325 323 321 320 320 317 315 314 314 311 305 304 309 306 293 291 294 292 294 298 294 291 291 285 282 286 291 295 300 300 298 299 304 310 313 314 314 314 314 313 314 314 315 314 314 315 316 315 312 310 308 305 302 300 299 297 294 nan nan 286 286 284 283 nan nan 284 284
309 312 318 324 322 315 316 318 321 323 327 336 345 343 339 332 327 329 327 325 322 320 320 321 319 318 314 309 305 302 305 306 297 295 295 292 295 299 295 287 282 278 278 285 294 300 300 299 297 299 302 305 308 311 312 315 314 315 315 314 315 314 314 313 313 312 312 312 311 309 306 304 301 299 297 nan nan 290 288 nan nan nan nan nan nan
315 318 321 324 320 320 322 322 327 333 337 344 348 344 340 335 333 331 329 326 323 322 323 324 327 329 321 311 305 304 306 303 298 296 296 293 296 298 292 283 277 273 276 286 297 301 299 296 297 298 300 303 306 309 311 314 314 315 315 314 313 313 313 312 311 311 311 311 310 308 307 305 302 301 298 295 nan nan nan nan 285 nan nan nan nan
316 320 323 325 322 324 324 326 330 339 339 340 343 342 340 339 338 335 331 329 328 329 331 329 329 334 330 320 310 308 310 307 299 297 296 295 294 294 293 289 279 273 281 293 298 299 297 296 296 298 301 304 309 312 314 315 314 314 313 312 311 311 311 310 309 310 311 310 309 309 306 305 304 nan 299 296 295 293 288 nan nan 286 286 283 279
318 322 324 326 325 325 327 326 329 334 338 337 340 340 337 337 337 333 332 333 332 330 331 330 328 329 329 325 316 309 311 308 299 297 298 298 297 294 293 289 280 281 290 296 297 295 295 295 295 298 302 306 311 314 314 313 311 311 311 310 310 310 310 309 309 310 309 309 309 307 304 303 303 301 299 300 299 296 292 nan nan 284 284 283 280
317 319 321 324 328 326 327 323 326 330 336 336 335 333 332 333 333 332 333 333 328 326 329 330 327 324 323 324 318 311 309 307 298 295 296 295 294 294 291 288 289 293 296 296 295 295 294 294 295 298 302 308 311 312 311 307 309 311 311 310 309 308 308 307 308 308 308 309 308 306 306 304 301 298 297 298 297 294 293 293 291 286 281 278 276
318 318 320 320 323 328 333 324 325 330 335 337 334 332 331 330 330 332 332 329 325 324 328 330 327 322 320 320 318 312 309 302 297 298 292 289 290 284 282 288 296 297 296 294 293 295 297 297 297 303 305 308 312 316 317 318 316 314 311 309 309 308 308 308 309 309 310 311 311 307 306 304 302 302 302 303 295 296 299 295 290 284 281 277 275
320 321 322 322 324 325 324 322 320 330 336 340 332 331 331 329 330 330 326 323 323 321 323 326 327 324 nan 319 317 311 303 298 302 nan nan nan 290 281 282 294 299 299 297 295 293 294 295 298 299 304 311 315 317 320 320 319 nan nan nan nan nan 307 307 310 311 312 312 312 310 310 308 307 307 306 306 304 302 297 296 293 288 284 281 274 268
321 324 325 326 329 326 322 318 323 332 335 338 336 331 329 328 328 327 328 328 321 317 320 321 321 319 nan 320 313 304 303 307 308 nan nan nan nan 288 293 296 296 297 295 294 293 293 295 297 298 301 308 311 311 314 319 320 318 317 nan nan nan nan nan 317 315 314 313 310 310 307 307 310 311 307 302 295 292 296 296 292 290 286 279 275 273
319 322 325 326 325 327 323 323 328 328 331 335 334 333 329 328 327 326 328 326 319 317 318 317 316 315 316 314 304 297 301 304 307 nan nan nan nan 300 298 297 296 296 295 293 293 293 293 295 296 300 306 305 310 314 312 311 315 317 316 317 319 321 nan nan nan 320 313 313 312 312 312 308 307 305 300 300 299 300 297 295 293 287 279 278 275
318 320 321 322 324 323 322 325 326 325 328 329 328 332 329 328 326 323 322 321 319 314 311 311 310 311 311 307 301 297 302 302 nan nan nan nan nan nan 301 302 298 297 294 292 291 293 292 292 296 302 308 311 313 312 309 308 306 309 312 315 317 322 328 nan nan nan nan 316 313 312 310 307 306 304 303 299 301 301 297 296 287 280 278 277 272
313 317 319 322 324 324 322 322 321 322 324 324 323 328 332 327 324 322 320 319 318 312 302 301 306 306 306 308 303 299 298 nan nan nan nan nan nan nan 301 301 298 295 291 290 290 290 290 290 296 305 309 311 308 302 305 305 307 309 312 315 316 314 313 315 317 317 315 315 314 313 310 309 306 304 303 305 308 301 297 293 288 282 279 nan nan
309 312 317 321 324 323 319 318 320 321 323 321 322 328 330 330 322 317 315 313 309 301 302 309 312 309 308 308 303 301 nan nan nan 302 nan nan nan 301 303 302 300 294 291 290 290 289 291 300 307 311 311 312 303 299 299 302 307 311 314 316 315 313 313 310 305 308 309 307 305 303 302 298 nan nan nan nan nan nan nan nan nan nan nan nan nan
306 309 312 316 319 320 317 315 317 318 318 319 322 325 326 325 316 306 306 308 306 308 311 316 315 310 311 308 305 301 nan 295 nan nan nan nan nan 306 306 304 301 298 293 291 291 292 296 303 309 311 312 312 304 304 nan nan 309 312 315 315 313 312 311 309 313 nan nan nan nan nan nan nan nan nan nan nan nan nan nan nan nan nan nan nan nan
302 306 308 311 315 317 317 316 316 317 317 319 320 321 322 320 309 300 305 305 306 305 310 315 314 311 313 nan 310 303 295 291 299 309 313 nan nan 309 305 302 300 295 294 293 292 294 302 309 309 312 313 308 301 nan nan nan 313 315 315 314 313 312 310 308 306 308 nan nan nan nan nan nan nan nan nan nan nan nan nan nan nan nan nan nan nan
300 304 306 307 311 314 314 313 314 315 316 315 315 318 318 316 306 301 303 303 303 307 313 313 312 314 319 321 307 300 289 284 295 303 305 308 309 305 301 297 294 294 294 293 294 296 301 307 314 314 308 298 nan nan nan nan nan nan 314 313 313 311 308 304 304 301 300 303 307 310 313 319 321 320 321 nan nan nan nan nan nan nan nan nan nan
298 300 303 305 308 309 309 311 311 312 312 312 311 312 311 306 302 301 302 303 306 311 314 315 316 318 322 321 307 295 282 275 285 297 302 305 312 305 298 294 294 295 295 294 293 299 304 308 312 nan nan nan nan nan nan nan nan nan 313 312 nan 312 303 nan 301 nan nan nan nan nan nan nan nan nan nan nan nan nan nan nan nan nan nan nan nan
295 298 300 303 306 306 305 307 309 310 311 311 310 308 304 301 298 300 301 304 309 312 314 314 316 320 321 314 298 282 274 272 281 296 301 305 309 308 302 300 296 294 292 293 299 302 307 311 309 311 nan nan nan nan nan nan nan nan nan 313 nan nan nan nan nan nan nan nan nan nan nan nan nan nan nan nan nan nan nan nan nan nan nan nan nan
293 296 299 301 301 301 302 304 305 305 308 309 304 305 302 299 299 303 304 307 313 315 314 314 314 317 312 301 289 280 274 274 283 292 300 302 306 312 306 304 296 292 292 297 302 306 308 308 304 303 nan nan nan nan nan nan nan nan nan nan nan nan nan nan nan nan nan nan nan nan nan nan nan nan nan nan nan nan nan nan nan nan nan nan nan
293 294 295 297 297 297 298 302 303 302 304 307 308 306 302 302 302 304 305 307 312 314 314 312 312 307 300 291 282 278 276 275 276 287 297 298 300 308 306 290 283 291 293 298 304 306 305 304 nan nan nan nan nan nan nan nan nan nan nan nan nan nan nan nan nan nan nan nan nan nan nan nan nan nan nan nan nan nan nan nan nan nan nan nan nan
290 290 291 293 294 293 294 299 302 301 304 306 307 307 304 304 303 303 304 307 309 310 308 309 307 306 300 293 286 282 280 277 281 280 288 292 298 303 303 291 291 293 293 300 303 304 302 296 nan nan nan nan nan nan nan nan nan nan nan nan nan nan nan nan nan nan nan nan nan nan nan nan nan nan nan nan nan nan nan nan nan nan nan nan nan
287 286 287 290 291 291 293 297 299 300 301 306 308 308 305 302 302 301 303 306 308 308 307 305 305 308 305 297 290 286 282 285 285 282 280 283 291 299 300 299 297 290 296 300 300 293 nan nan nan nan nan nan nan nan nan nan nan nan nan nan nan nan nan nan nan nan nan nan nan nan nan nan nan nan nan nan nan nan nan nan nan nan nan nan nan
287 286 287 288 290 291 294 296 296 297 301 304 306 304 302 301 300 300 304 305 307 305 303 304 308 311 306 298 290 285 281 282 286 282 278 286 300 303 299 298 297 295 291 290 nan nan nan nan nan nan nan nan nan nan nan nan nan nan nan nan nan nan nan nan nan nan nan nan nan nan nan nan nan nan nan nan nan nan nan nan nan nan nan nan nan
286 285 287 289 291 293 295 294 294 294 297 299 301 302 301 301 299 300 303 303 301 300 299 304 308 309 301 295 290 287 288 289 288 284 288 302 306 301 300 300 298 nan nan nan nan nan nan nan nan nan nan nan nan nan nan nan nan nan nan nan nan nan nan nan nan nan nan nan nan nan nan nan nan nan nan nan nan nan nan nan nan nan nan nan nan
285 286 288 289 290 293 293 291 292 293 295 297 300 302 302 301 302 302 302 296 295 296 299 304 307 305 298 292 284 282 290 294 288 285 297 306 303 298 303 304 nan nan nan 305 305 nan nan nan nan nan nan nan nan nan nan nan nan nan nan nan nan nan nan nan nan nan nan nan nan nan nan nan nan nan nan nan nan nan nan nan nan nan nan nan nan
284 285 285 286 288 288 290 291 293 293 295 292 280 277 279 284 290 299 283 275 278 291 300 302 303 301 296 292 290 289 290 291 290 281 290 289 294 305 309 309 309 309 292 nan nan nan nan nan nan nan nan nan nan nan nan nan nan nan nan nan nan nan nan nan nan nan nan nan nan nan nan nan nan nan nan nan nan nan nan nan nan nan nan nan nan
284 283 284 285 286 288 289 290 292 295 294 287 288 285 278 278 278 281 277 265 263 268 283 298 298 297 293 290 285 287 287 287 286 289 292 291 nan nan nan nan nan nan nan nan nan nan nan nan nan nan nan nan nan nan nan nan nan nan nan nan nan nan nan nan nan nan nan nan nan nan nan nan nan nan nan nan nan nan nan nan nan nan nan nan nan
282 282 283 285 286 287 289 290 292 294 290 288 287 286 286 281 274 269 265 259 257 276 294 291 287 292 296 288 278 272 275 282 288 291 nan nan nan nan nan nan nan nan nan nan nan nan nan nan nan nan nan nan nan nan nan nan nan nan nan nan nan nan nan nan nan nan nan nan nan nan nan nan nan nan nan nan nan nan nan nan nan nan nan nan nan
281 281 283 284 283 285 287 287 287 285 285 286 287 289 289 290 286 273 263 252 254 274 286 284 280 278 281 285 284 276 274 282 nan nan nan nan nan nan nan nan nan nan nan nan nan nan nan nan nan nan nan nan nan nan nan nan nan nan nan nan nan nan nan nan nan nan nan nan nan nan nan nan nan nan nan nan nan nan nan nan nan nan nan nan nan
281 280 279 279 283 287 287 286 287 289 289 289 290 290 292 294 291 289 nan 258 258 273 280 276 275 279 277 276 279 285 289 nan nan nan nan nan nan nan nan nan nan nan nan nan nan nan nan nan nan nan nan nan nan nan nan nan nan nan nan nan nan nan nan nan nan nan nan nan nan nan nan nan nan nan nan nan nan nan nan nan nan nan nan nan nan
277 277 279 281 281 286 289 288 289 291 292 292 293 292 294 295 294 292 289 281 278 282 282 274 268 270 268 274 nan nan nan nan nan nan nan nan nan nan nan nan nan nan nan nan nan nan nan nan nan nan nan nan nan nan nan nan nan nan nan nan nan nan nan nan nan nan nan nan nan nan nan nan nan nan nan nan nan nan nan nan nan nan nan nan nan
279 279 281 282 284 286 288 289 290 291 292 292 289 290 292 294 293 293 293 290 287 289 289 278 265 258 270 nan nan nan nan nan nan nan nan nan nan nan nan nan nan nan nan nan nan nan nan nan nan nan nan nan nan nan nan nan nan nan nan nan nan nan nan nan nan nan nan nan nan nan nan nan nan nan nan nan nan nan nan nan nan nan nan nan nan
281 282 284 285 284 284 286 287 288 288 290 290 292 294 294 295 296 293 288 286 288 288 284 276 271 267 nan nan nan nan nan nan nan nan nan nan nan nan nan nan nan nan nan nan nan nan nan nan nan nan nan nan nan nan nan nan nan nan nan nan nan nan nan nan nan nan nan nan nan nan nan nan nan nan nan nan nan nan nan nan nan nan nan nan nan
282 282 282 284 284 284 284 284 285 287 289 291 293 294 293 292 292 287 283 285 289 nan nan nan nan nan nan nan nan nan nan nan nan nan nan nan nan nan nan nan nan nan nan nan nan nan nan nan nan nan nan nan nan nan nan nan nan nan nan nan nan nan nan nan nan nan nan nan nan nan nan nan nan nan nan nan nan nan nan nan nan nan nan nan nan
281 282 283 283 284 283 285 285 283 285 290 292 292 292 292 nan 286 280 281 nan nan nan nan nan nan nan nan nan nan nan nan nan nan nan nan nan nan nan nan nan nan nan nan nan nan nan nan nan nan nan nan nan nan nan nan nan nan nan nan nan nan nan nan nan nan nan nan nan nan nan nan nan nan nan nan nan nan nan nan nan nan nan nan nan nan
281 272 274 278 281 285 287 289 290 292 292 293 294 293 292 290 285 281 284 288 289 287 285 283 280 nan nan nan nan nan nan nan nan nan nan nan nan nan nan nan nan nan nan nan nan nan nan nan nan nan nan nan nan nan nan nan nan nan nan nan nan nan nan nan nan nan nan nan nan nan nan nan nan nan nan nan nan nan nan nan nan nan nan nan nan
282 283 281 282 284 285 290 291 292 293 293 293 293 293 293 291 286 284 284 284 288 288 287 284 281 nan nan nan nan nan nan nan nan nan nan nan nan nan nan nan nan nan nan nan nan nan nan nan nan nan nan nan nan nan nan nan nan nan nan nan nan nan nan nan nan nan nan nan nan nan nan nan nan nan nan nan nan nan nan nan nan nan nan nan nan
283 284 286 287 285 288 290 291 292 292 291 291 290 290 290 288 283 279 279 283 283 285 286 286 nan 282 285 290 nan nan nan nan nan nan nan nan nan nan nan nan nan nan nan nan nan nan nan nan nan nan nan nan nan nan nan nan nan nan nan nan nan nan nan nan nan nan nan nan nan nan nan nan nan nan nan nan nan nan nan nan nan nan nan nan nan
286 288 289 288 290 289 288 289 288 289 289 288 289 287 286 286 284 nan 281 280 277 279 282 284 284 283 281 287 nan nan nan nan nan nan nan nan nan nan nan nan nan nan nan nan nan nan nan nan nan nan nan nan nan nan nan nan nan nan nan nan nan nan nan nan nan nan nan nan nan nan nan nan nan nan nan nan nan nan nan nan nan nan nan nan nan
286 288 289 290 291 290 290 290 290 290 290 291 290 288 288 287 285 281 280 281 282 284 286 284 282 280 281 nan nan nan nan nan nan nan nan nan nan nan nan nan nan nan nan nan nan nan nan nan nan nan nan nan nan nan nan nan nan nan nan nan nan nan nan nan nan nan nan nan nan nan nan nan nan nan nan nan nan nan nan nan nan nan nan nan nan
286 287 288 290 290 291 291 291 291 291 290 287 287 287 288 289 286 285 284 283 284 284 284 285 288 288 291 nan nan nan nan nan nan nan nan nan nan nan nan nan nan nan nan nan nan nan nan nan nan nan nan nan nan nan nan nan nan nan nan nan nan nan nan nan nan nan nan nan nan nan nan nan nan nan nan nan nan nan nan nan nan nan nan nan nan
287 289 291 291 291 291 290 290 290 289 290 290 289 288 288 287 286 287 288 291 290 289 288 291 296 nan nan nan nan nan nan nan nan nan nan nan nan nan nan nan nan nan nan nan nan nan nan nan nan nan nan nan nan nan nan nan nan nan nan nan nan nan nan nan nan nan nan nan nan nan nan nan nan nan nan nan nan nan nan nan nan nan nan nan nan
289 291 291 291 291 290 290 289 289 289 290 288 288 287 287 286 286 287 289 290 293 293 293 296 300 303 nan nan nan nan nan nan nan nan nan nan nan nan nan nan nan nan nan nan nan nan nan nan nan nan nan nan nan nan nan nan nan nan nan nan nan nan nan nan nan nan nan nan nan nan nan nan nan nan nan nan nan nan nan nan nan nan nan nan nan
289 290 290 289 289 290 289 290 291 289 287 285 286 286 287 286 285 284 285 287 291 294 295 297 298 298 nan nan nan nan nan nan nan nan nan nan nan nan nan nan nan nan nan nan nan nan nan nan nan nan nan nan nan nan nan nan nan nan nan nan nan nan nan nan nan nan nan nan nan nan nan nan nan nan nan nan nan nan nan nan nan nan nan nan nan
293 295 294 292 292 293 292 291 287 286 285 284 282 282 282 281 282 284 286 289 292 292 292 292 292 nan nan nan nan nan nan nan nan nan nan nan nan nan nan nan nan nan nan nan nan nan nan nan nan nan nan nan nan nan nan nan nan nan nan nan nan nan nan nan nan nan nan nan nan nan nan nan nan nan nan nan nan nan nan nan nan nan nan nan nan
291 291 292 294 294 295 294 292 291 288 283 281 280 279 279 280 281 284 286 286 286 286 287 289 291 290 nan nan nan nan nan nan nan nan nan nan nan nan nan nan nan nan nan nan nan nan nan nan nan nan nan nan nan nan nan nan nan nan nan nan nan nan nan nan nan nan nan nan nan nan nan nan nan nan nan nan nan nan nan nan nan nan nan nan nan
292 293 293 293 294 292 291 292 291 286 283 283 281 279 279 280 281 282 nan nan nan nan nan nan nan nan nan nan nan nan nan nan nan nan nan nan nan nan nan nan nan nan nan nan nan nan nan nan nan nan nan nan nan nan nan nan nan nan nan nan nan nan nan nan nan nan nan nan nan nan nan nan nan nan nan nan nan nan nan nan nan nan nan nan nan
293 294 294 294 293 294 295 294 291 288 288 287 285 283 nan nan nan nan nan nan nan nan nan nan nan nan nan nan nan nan nan nan nan nan nan nan nan nan nan nan nan nan nan nan nan nan nan nan nan nan nan nan nan nan nan nan nan nan nan nan nan nan nan nan nan nan nan nan nan nan nan nan nan nan nan nan nan nan nan nan nan nan nan nan nan